Location: Carri�res
(48.9069°N, 2.1792°E)
Time: 21:09:07
(UTC+00:00)

FengYun 1-2 T - Pass Details

Date: 17 January 2021
Orbit: 846 x 881 km, 98.7° (Epoch: 02 March)

Event Time Altitude Azimuth Distance (km) Brightness Sun altitude
Rises 17:18:02 0° 161° (SSE) 3,416 7.4 -8.6°
Reaches altitude 10° 17:20:23 10° 161° (SSE) 2,488 6.7 -8.9°
Maximum altitude 17:25:56 86° 73° (ENE) 874 4.3 -9.8°
Drops below altitude 10° 17:31:34 10° 346° (NNW) 2,529 6.6 -10.7°
Sets 17:33:59 0° 346° (NNW) 3,476 7.3 -11.0°
